+ View the NASA Portal
+ Center for Near-Earth Object Studies
IMPORTANT:
The SSD Announcement email list is now available. Major changes are coming in the near future, including possible hostname and/or URL changes. To be notified of such changes, subscribe to this email list.
Please visit
this page
for more details.
Don't show this message again
JPL Small-Body Database Browser
Search:
[
help
]
(2019 TN5)
Classification:
Apollo
[
NEO
]
SPK-ID:
3878619
[
Ephemeris
|
Orbit Diagram
|
Orbital Elements
|
Mission Design
|
Physical Parameters
|
Close-Approach Data
]
[ show orbit diagram ]
Orbital Elements at Epoch 2458600.5 (2019-Apr-27.0) TDB
Reference:
JPL 1
(heliocentric ecliptic J2000)
Element
Value
Uncertainty (1-sigma)
Units
e
.5951416758933491
0.00038214
a
2.199389171849734
0.0019944
au
q
.8904410141733979
3.3195e-05
au
i
1.079447411792236
7.4063e-05
deg
node
191.2162008873015
0.00061556
deg
peri
135.7746444684908
0.0030091
deg
M
321.028388259587
0.051006
deg
t
p
2458729.472588760974
(2019-Sep-02.97258876)
0.0066398
TDB
period
1191.383416811665
3.26
1.6205
0.004437
d
yr
n
.3021697254804992
0.00041101
deg/d
Q
3.50833732952607
0.0031814
au
Orbit Determination Parameters
# obs. used (total)
14
data-arc span
3 days
first obs. used
2019-10-06
last obs. used
2019-10-09
planetary ephem.
DE431
SB-pert. ephem.
SB431-N16
condition code
7
norm. resid. RMS
.49745
source
ORB
producer
Otto Matic
solution date
2019-Oct-09 19:12:03
Additional Information
Earth MOID
= .00028349 au
Jupiter MOID
= 1.86619 au
T_jup
= 3.411
[ show covariance matrix ]
[
Ephemeris
|
Orbit Diagram
|
Orbital Elements
|
Mission Design
|
Physical Parameters
|
Close-Approach Data
]
Physical Parameter Table
Parameter
Symbol
Value
Units
Sigma
Reference
Notes
absolute magnitude
H
28.414
.21914
1
autocmod 2.8
[ show close-approach data ]
[
Ephemeris
|
Orbit Diagram
|
Orbital Elements
|
Mission Design
|
Physical Parameters
|
Close-Approach Data
]
2019-Dec-12 19:41 UT
(server date/time)
Site Manager:
Ryan S. Park
Webmaster
:
Alan B. Chamberlin